map of BFN home
Great Circle Mapper logo
BFN - Airport
Location
City:  Bloemfontein, South Africa
Name:J.B.M. Hertzog
ICAO / IATA:FABL / BFN

Details
Type:Airport (Aerodrome, Airfield)
Use:Public/Civil, Military, International (customs port of entry)
Latitude:2905'34"S (-29.092721)
Longitude:2618'09"E (26.302444)
Datum:WGS 1984
Elevation:4458 ft (1359 m)
Variation:22.11W (WMM2015 magnetic declination)
-0.13 annual change
Runways:2
Longest:8396 × 151 ft (2559 × 46 m), paved

Time
Time Zone:UTC+2
Local Time:

Weather
METAR:FABL 020400Z 34003KT 290V060 CAVOK 14/12 Q1022 NOSIG
TAF:FABL 012200Z 0200/0224 VRB03KT CAVOK
BECMG 0208/0210 SCT045 PROB30
TEMPO 0209/0214 -TSRA FEW045CB
BECMG 0214/0216 19008KT TX26/0212ZTN13/0205Z

Related Locations
Nearby:
Farthest:LUP: 11852 mi / 19074 km
Kalaupapa, Molokai, HI, US

Find:

   beyond  
but within

Other Information
Maps:
NOTAMs:
Links:
Sources:

  
flag of South Africa   

Sectional Chart

Flight Planning
at skyvector.com

Satellite Image

Google Maps Satellite View

 

Copyright © 2004-2015 Karl L. Swartz. All rights reserved.
The Great Circle Mapper name and logo are trademarks of the Great Circle Mapper.
All other trademarks mentioned herein belong to their respective owners.
Please see credits for attibutions and further copyright information.

  Follow gcmap on Facebook Follow gcmap on Twitter Follow gcmap on Google+

hCard Microformat

Geo Microformat